Theta_e
342 344 346 348 348 346 343 341 341 339 336 334 332 332 331 328 327 326 322 321 318 315 312 309 307 311 310
343 335 338 341 341 341 339 336 334 333 333 332 330 331 328 326 325 323 321 319 316 313 308 305 303 307 307
340 337 332 335 336 336 334 330 328 333 330 327 325 328 328 326 323 322 319 317 312 308 305 302 304 305 305
337 338 337 338 339 339 339 335 334 333 329 324 321 325 327 324 322 320 317 312 308 306 303 303 304 304 304
336 337 338 337 336 336 336 337 334 331 327 324 323 323 323 318 317 316 309 304 306 306 305 305 304 304 304
334 334 335 335 336 333 336 337 333 329 325 322 321 322 324 319 317 314 308 308 305 304 304 303 302 303 303
332 333 333 334 334 335 336 335 331 326 322 320 320 321 321 318 315 310 306 305 305 302 302 302 301 301 302
330 332 331 332 333 333 332 331 328 325 321 318 318 319 318 315 311 306 305 304 303 303 300 300 300 301 301
328 329 330 330 330 331 330 329 326 323 320 317 316 316 315 312 308 305 304 304 302 301 300 299 300 301 300
326 327 328 328 328 329 328 326 323 321 318 315 313 313 312 307 304 303 302 301 301 299 299 299 300 301 300
325 326 326 327 326 326 326 324 322 319 316 312 311 310 308 303 302 301 300 300 299 299 299 299 300 300 299
320 323 324 325 324 324 323 322 320 317 314 311 309 308 304 302 300 301 300 300 300 299 294 296 299 299 299
315 316 318 319 320 321 321 321 319 316 313 310 307 306 302 300 300 300 300 298 299 298 296 296 295 296 297
312 314 315 316 318 318 319 318 316 315 311 308 305 304 301 300 300 299 298 296 298 297 297 296 292 292 295
308 310 311 311 307 308 312 314 313 312 311 308 305 303 301 299 298 299 298 297 295 296 300 299 295 294 291
304 305 305 305 303 305 305 308 309 310 309 307 305 303 301 299 298 298 298 297 297 293 295 296 297 299 293
Wind_Speed
8 11 13 13 12 15 14 11 10 9 9 9 8 8 9 9 9 9 8 7 6 6 6 7 6 8 5
13 8 10 11 12 13 13 12 10 8 9 8 7 8 9 9 9 9 9 8 7 7 5 4 1 4 5
14 13 10 10 11 10 10 10 11 9 11 11 10 11 10 11 11 10 9 8 8 7 5 2 6 3 2
11 13 14 11 7 10 10 11 9 11 9 10 10 11 10 11 11 11 10 8 7 4 3 4 3 2 3
12 9 7 8 8 8 12 12 11 8 7 6 5 6 8 9 7 8 7 5 3 2 2 2 2 1 2
10 9 9 9 9 8 11 14 9 6 7 7 6 8 7 6 7 6 3 3 4 3 2 3 2 2 2
15 10 10 10 9 11 11 12 10 9 9 9 7 7 7 7 6 6 5 5 4 4 3 2 2 2 2
14 14 10 10 10 10 10 11 14 10 9 9 9 8 8 7 7 6 5 5 5 4 4 2 2 1 1
18 16 11 10 10 10 10 13 14 13 12 11 9 8 8 7 7 6 6 5 5 4 5 4 2 2 2
15 13 10 10 10 9 10 10 14 14 13 11 10 9 9 8 8 7 7 6 5 5 5 4 3 3 3
12 10 10 11 9 8 8 9 13 14 13 11 9 9 11 9 9 9 8 8 7 6 5 4 3 4 4
8 8 7 8 8 8 8 9 11 10 12 10 8 9 9 7 8 8 9 7 7 7 6 5 3 3 3
6 7 7 7 7 7 7 9 12 10 12 11 8 9 9 9 9 9 7 9 7 7 7 4 3 4 4
3 3 5 5 5 6 5 7 9 10 12 12 11 10 11 8 10 11 11 8 4 9 5 5 4 3 4
6 4 2 3 3 4 4 5 6 10 9 10 12 10 12 11 11 11 12 13 7 8 9 4 4 4 6
9 5 5 4 6 4 5 5 5 9 11 12 12 12 11 10 12 11 11 11 9 8 5 5 3 1 5
Wind_Direction
194 196 194 195 191 174 164 154 147 159 203 196 204 186 175 170 159 152 143 137 128 110 87 64 28 356 63
202 198 181 179 173 172 167 159 153 164 174 183 185 189 185 172 161 154 147 143 135 122 107 96 280 297 66
208 197 193 188 184 179 177 166 147 192 185 183 196 171 185 168 167 162 155 142 130 118 115 186 252 53 82
211 209 205 203 203 198 199 187 186 200 195 197 177 169 167 162 166 164 152 148 205 162 144 232 55 40 57
213 209 197 204 203 209 212 201 199 197 186 186 170 175 166 163 174 167 164 196 161 153 107 89 92 32 49
210 206 212 206 193 202 211 206 191 190 182 187 184 183 180 176 180 175 178 151 160 138 124 117 74 26 30
207 207 210 209 196 204 204 197 186 188 186 188 189 184 179 177 175 176 175 170 160 147 137 118 75 38 36
212 212 207 208 204 202 201 194 193 193 187 187 184 185 184 182 176 180 172 169 166 152 144 129 106 91 53
211 210 212 210 204 199 202 194 194 202 191 187 186 184 184 174 173 169 166 169 162 158 154 154 147 145 134
222 214 208 208 205 206 202 196 193 202 197 191 187 185 177 171 173 173 172 171 174 175 162 158 152 153 145
228 234 219 214 212 211 207 205 198 200 203 191 191 185 175 176 182 177 174 176 172 174 160 151 159 159 171
239 237 232 228 220 211 214 213 209 203 203 200 194 183 176 182 184 182 175 180 171 161 155 152 161 155 182
215 225 232 237 220 226 231 219 212 198 200 207 198 183 175 187 189 182 171 171 170 149 134 142 155 178 188
264 239 248 246 255 243 220 238 228 214 198 198 201 191 182 185 189 184 175 166 171 179 174 147 170 182 201
355 336 309 1 323 336 264 236 233 245 214 211 210 203 187 188 187 186 187 182 171 193 224 162 155 207 142
20 19 338 305 296 271 246 265 244 223 231 210 218 219 202 192 192 187 187 194 184 182 209 256 258 94 174